Details for FedEx at RJBB




Go Back


Latest METAR
Local Time

RJBB 221100Z 34006KT 9999 FEW030 SCT/// 25/22 Q1014 BECMG 04010KT
Not Currently Availible

Description
Results
FedEx Logo
Number of Pilots based at RJBB
0 Pilots Based here
Number of FedEx Flights Departed from RJBB
0 Flights Departed
Number of FedEx Flights Arrived at RJBB
0 Flights Arrived
Number of FedEx Schedules Departing from RJBB
58 Schedules
Number of FedEx Schedules Arriving at RJBB
61 Schedules
Number of FedEx Schedules Departing from RJBB availible today
10 Schedules Today
Number of FedEx Schedules Arriving at RJBB availible today
6 Schedules Today
Average Landing Rate at RJBB
-154 fpm
FedEx Average Landing Rate at RJBB
0 fpm
Total Fuel Purchased at RJBB by FedEx
0.00 kgs / 0.00 lbs

Pilots Based at RJBB


Pilot ID
Pilot Name
Pilot Rank
No. of Flights
No. of Flying Hours
There are no pilots assigned to this hub!   Will you be the first?
Content